User: anonymous   Login
Location: Unspecified
(0.0000°N, 0.0000°E)
Time: 15:24:17
(UTC+00:00)
Language:

DMSP 5D-2 F-14 - Orbit

View from above orbital plane
View from above orbital plane
View from above satellite
View from above satellite

Ground track
Ground track

The orbit data is extracted from the following two-line orbital elements,

1 24753U 97012A   18047.18119631 0.00000000  00000-0  00000-0 0    03
2 24753  99.0140  42.8172 0009000 119.8189 240.1810 14.15759467    01
Epoch (UTC): 16 February 2018 04:20:55
Eccentricity: 0.0009000
inclination: 99.0140°
perigee height: 833 km
apogee height: 846 km
right ascension of ascending node: 42.8172°
argument of perigee: 119.8189°
revolutions per day: 14.15759467
mean anomaly at epoch: 240.1810°
orbit number at epoch: 0

The dashed part of the orbit path shows where the satellite is in the earth's shadow,  

DLR